Location: *
(32.8140°S, 174.6161°E)
Time: 04:39:48
(UTC+00:00)

deb Chang Zheng 4 - Pass Details

Date: 10 December 2019
Orbit: 606 x 627 km, 98.5° (Epoch: 27 January)

Event Time Altitude Azimuth Distance (km) Brightness Sun altitude
Exits shadow 14:41:13 59° 238° (WSW) 735 3.8 -24.2°
Drops below altitude 10° 14:45:04 10° 199° (SSW) 2,033 6.6 -23.7°
Sets 14:47:18 0° 196° (SSW) 2,948 7.5 -23.4°
